Location: Unspecified
(0.0000°N, 0.0000°E)
Time: 20:27:01
(UTC+00:00)

Hubble Space Telescope - Pass Details

Date: 26 March 2023
Orbit: 527 x 530 km, 28.5° (Epoch: 30 March)

Event Time Altitude Azimuth Distance (km) Brightness Sun altitude
Rises 18:58:05 0° 257° (WSW) 2,651 5.9 -13.1°
Reaches altitude 10° 19:00:30 10° 267° (W) 1,761 4.8 -13.7°
Maximum altitude 19:04:08 31° 330° (NNW) 934 2.3 -14.6°
Enters shadow 19:07:45 10° 34° (NNE) 1,750 3.1 -15.5°
